TimeCEST,TemperatureF,Dew PointF,Humidity,Sea Level PressureIn,VisibilityMPH,Wind Direction,Wind SpeedMPH,Gust SpeedMPH,PrecipitationIn,Events,Conditions,WindDirDegrees,DateUTC
12:00 AM,60.8,51.8,72,30.06,-9999.0,Variable,2.3,-,N/A,,Clear,0,2013-04-10 22:00:00
12:30 AM,60.8,53.6,77,30.04,-9999.0,Variable,1.2,-,N/A,,Clear,0,2013-04-10 22:30:00
1:00 AM,62.6,51.8,68,30.04,-9999.0,WSW,3.5,-,N/A,,Clear,250,2013-04-10 23:00:00
1:30 AM,64.4,51.8,64,30.04,-9999.0,WSW,5.8,-,N/A,,Clear,240,2013-04-10 23:30:00
2:00 AM,62,48,51,30.04,11,West,6.9,,,,Clear,280,2013-04-11 00:00:00
2:00 AM,62.6,51.8,68,30.04,-9999.0,West,5.8,-,N/A,,Clear,280,2013-04-11 00:00:00
2:30 AM,64.4,51.8,64,30.01,-9999.0,West,4.6,-,N/A,,Clear,270,2013-04-11 00:30:00
3:00 AM,62.6,51.8,68,30.01,-9999.0,West,4.6,-,N/A,,Clear,260,2013-04-11 01:00:00
3:30 AM,62.6,53.6,72,30.01,-9999.0,SSW,3.5,-,N/A,,Clear,200,2013-04-11 01:30:00
4:00 AM,60.8,51.8,72,30.01,-9999.0,Variable,1.2,-,N/A,,Clear,0,2013-04-11 02:00:00
4:30 AM,59.0,53.6,82,30.01,-9999.0,Variable,2.3,-,N/A,,Clear,0,2013-04-11 02:30:00
5:00 AM,59.0,53.6,82,29.98,-9999.0,Variable,2.3,-,N/A,,Clear,0,2013-04-11 03:00:00
5:30 AM,57.2,53.6,88,29.98,-9999.0,Variable,2.3,-,N/A,,Clear,0,2013-04-11 03:30:00
6:00 AM,55.4,53.6,94,29.98,-9999.0,Variable,2.3,-,N/A,,Clear,0,2013-04-11 04:00:00
6:30 AM,55.4,53.6,94,29.98,-9999.0,South,3.5,-,N/A,,Clear,190,2013-04-11 04:30:00
7:00 AM,57.2,55.4,94,29.98,-9999.0,Variable,1.2,-,N/A,,Clear,0,2013-04-11 05:00:00
7:30 AM,57.2,53.6,88,29.98,-9999.0,Variable,1.2,-,N/A,,Clear,0,2013-04-11 05:30:00
8:00 AM,55,49,73,29.98,16,WSW,2.3,,,,Scattered Clouds,240,2013-04-11 06:00:00
8:00 AM,55.4,51.8,88,29.98,-9999.0,Variable,2.3,-,N/A,,Clear,0,2013-04-11 06:00:00
8:30 AM,57.2,53.6,88,29.98,-9999.0,Calm,Calm,-,N/A,,Clear,0,2013-04-11 06:30:00
9:00 AM,60.8,53.6,77,29.98,-9999.0,Calm,Calm,-,N/A,,Clear,0,2013-04-11 07:00:00
9:30 AM,64.4,53.6,68,29.98,-9999.0,Calm,Calm,-,N/A,,Clear,0,2013-04-11 07:30:00
10:00 AM,68.0,53.6,60,29.98,-9999.0,Variable,1.2,-,N/A,,Clear,0,2013-04-11 08:00:00
10:30 AM,69.8,55.4,60,29.98,-9999.0,Variable,2.3,-,N/A,,Clear,0,2013-04-11 08:30:00
11:00 AM,71.6,53.6,53,29.98,-9999.0,South,3.5,-,N/A,,Clear,180,2013-04-11 09:00:00
11:30 AM,71.6,53.6,53,29.95,-9999.0,South,5.8,-,N/A,,Clear,180,2013-04-11 09:30:00
12:00 PM,71.6,51.8,50,29.95,-9999.0,South,10.4,-,N/A,,Clear,190,2013-04-11 10:00:00
12:30 PM,69.8,55.4,60,29.95,-9999.0,South,9.2,-,N/A,,Clear,180,2013-04-11 10:30:00
1:00 PM,71.6,55.4,57,29.95,-9999.0,South,9.2,-,N/A,,Clear,170,2013-04-11 11:00:00
1:30 PM,71.6,57.2,60,29.92,-9999.0,South,8.1,-,N/A,,Clear,180,2013-04-11 11:30:00
2:00 PM,71,53,42,29.93,16,South,9.2,,,,Clear,180,2013-04-11 12:00:00
2:00 PM,71.6,57.2,60,29.92,-9999.0,South,8.1,-,N/A,,Clear,180,2013-04-11 12:00:00
2:30 PM,71.6,57.2,60,29.92,-9999.0,South,9.2,-,N/A,,Clear,180,2013-04-11 12:30:00
3:00 PM,75.2,55.4,50,29.89,-9999.0,South,10.4,-,N/A,,Clear,180,2013-04-11 13:00:00
3:30 PM,73.4,57.2,57,29.89,-9999.0,South,9.2,-,N/A,,Clear,170,2013-04-11 13:30:00
4:00 PM,71.6,57.2,60,29.86,-9999.0,South,10.4,-,N/A,,Clear,170,2013-04-11 14:00:00
4:30 PM,71.6,57.2,60,29.86,-9999.0,South,12.7,-,N/A,,Clear,170,2013-04-11 14:30:00
5:00 PM,71.6,57.2,60,29.86,-9999.0,South,5.8,-,N/A,,Clear,190,2013-04-11 15:00:00
5:30 PM,69.8,57.2,64,29.83,-9999.0,South,6.9,-,N/A,,Clear,180,2013-04-11 15:30:00
6:00 PM,69.8,57.2,64,29.83,-9999.0,South,6.9,-,N/A,,Clear,180,2013-04-11 16:00:00
6:30 PM,69.8,57.2,64,29.83,-9999.0,South,4.6,-,N/A,,Clear,190,2013-04-11 16:30:00
7:00 PM,69.8,57.2,64,29.83,-9999.0,Calm,Calm,-,N/A,,Clear,0,2013-04-11 17:00:00
7:30 PM,69.8,59.0,68,29.86,-9999.0,Calm,Calm,-,N/A,,Clear,0,2013-04-11 17:30:00
8:00 PM,74,52,36,29.90,12,South,10.4,,,,Clear,180,2013-04-11 18:00:00
8:00 PM,69.8,59.0,68,29.86,-9999.0,Variable,1.2,-,N/A,,Clear,0,2013-04-11 18:00:00
8:30 PM,66.2,59.0,78,29.86,-9999.0,Variable,2.3,-,N/A,,Clear,0,2013-04-11 18:30:00
9:00 PM,69.8,57.2,64,29.89,-9999.0,NNW,3.5,-,N/A,,Clear,330,2013-04-11 19:00:00
9:30 PM,73.4,44.6,36,29.89,6.2,WNW,6.9,-,N/A,,Partly Cloudy,300,2013-04-11 19:30:00
10:00 PM,73.4,44.6,36,29.92,6.2,Variable,3.5,-,N/A,,Partly Cloudy,0,2013-04-11 20:00:00
10:30 PM,71.6,44.6,38,29.92,6.2,West,8.1,-,N/A,,Partly Cloudy,270,2013-04-11 20:30:00
11:00 PM,71.6,44.6,38,29.95,6.2,West,10.4,21.9,N/A,,Partly Cloudy,280,2013-04-11 21:00:00
11:30 PM,71.6,46.4,41,29.92,6.2,WNW,15.0,-,N/A,,Partly Cloudy,290,2013-04-11 21:30:00